RH
27 27 26 25 25 24 24 23 23 23 23 23 23 23 23 23 23 23 23 23 23 22 22 22 22 22 22 22 21 21 21 21 21 21 21 21 20 20 19 19 18 18 17 17 17 16 16 16 16 15 15 15
25 25 25 24 24 24 24 24 24 24 24 24 24 25 25 25 25 25 24 24 24 24 24 24 24 25 24 24 24 24 23 23 23 23 23 23 23 22 22 21 21 20 20 19 19 18 18 17 17 17 16 16
25 24 24 24 24 24 25 24 24 24 23 24 24 24 24 23 23 23 23 24 24 24 24 24 25 25 25 26 26 26 26 25 25 25 25 25 25 25 25 24 23 23 22 22 21 21 21 20 19 19 18 18
24 25 25 24 24 24 23 22 22 21 21 22 22 21 21 20 20 20 20 20 20 21 21 22 22 23 24 25 25 26 27 27 27 27 27 27 27 27 27 27 27 26 25 25 24 24 23 23 22 22 21 20
25 24 23 22 22 21 21 20 20 19 19 18 17 15 14 13 12 12 12 12 12 12 13 13 14 15 16 17 19 20 21 23 24 25 26 27 27 28 29 29 29 29 28 28 27 27 27 26 25 25 24 23
23 22 22 22 21 20 19 17 15 12 11 9 7 6 5 5 4 4 4 4 4 4 5 5 5 5 6 7 8 9 10 11 13 15 16 18 20 22 24 26 28 29 30 30 29 29 29 29 28 28 27 27
22 21 20 18 16 13 10 8 6 4 3 3 2 2 2 2 2 2 2 2 2 2 2 2 2 2 2 3 3 3 3 3 4 5 6 7 8 10 12 14 17 20 23 25 27 28 29 30 31 31 30 30
18 15 12 8 6 4 3 2 2 2 2 2 2 2 2 2 2 2 2 2 2 2 2 2 2 2 2 2 2 2 2 2 2 2 2 2 3 3 3 4 5 7 9 11 14 17 20 22 25 28 29 31
9 6 4 2 2 2 2 2 2 2 3 3 3 3 3 3 3 2 2 2 2 2 2 2 2 2 2 2 2 2 2 2 2 2 2 2 2 2 2 2 2 2 2 3 4 5 6 8 11 14 18 22
3 2 2 2 2 2 2 2 3 2 3 3 3 2 2 2 2 2 2 2 2 2 2 2 2 2 2 2 2 2 2 2 2 2 2 2 2 2 2 2 2 2 2 2 2 2 2 3 3 4 5 7
2 2 2 2 2 3 3 2 3 2 2 2 2 2 2 2 2 2 3 3 3 3 3 3 3 3 3 3 3 3 3 3 3 3 2 3 2 2 2 2 2 2 2 2 2 2 2 2 2 2 2 2
2 2 3 3 3 3 3 3 3 3 3 2 3 3 3 3 3 3 3 3 3 3 3 3 3 3 3 3 3 3 3 3 3 3 3 3 3 3 3 3 3 3 3 3 3 2 2 2 2 2 2 2
3 3 3 3 3 3 3 3 3 3 3 3 3 3 3 3 3 4 4 4 4 4 4 4 4 4 4 4 4 4 4 4 4 4 4 4 4 4 4 4 3 3 3 3 3 3 3 3 3 2 2 2
3 3 3 3 3 3 3 3 3 4 4 4 4 4 4 4 5 5 5 5 5 5 5 5 5 5 5 5 5 5 5 5 5 5 5 5 5 5 4 4 4 4 4 4 3 3 3 3 3 3 3 3
3 3 4 4 4 4 4 4 4 4 5 5 5 5 5 6 6 6 6 6 6 6 6 7 7 7 7 7 7 7 7 7 7 7 6 6 6 6 6 6 5 5 5 4 4 4 4 4 3 3 3 3
4 4 4 4 4 4 4 5 5 5 5 6 6 6 6 7 7 7 7 7 7 8 7 8 8 8 8 8 9 9 9 9 9 9 8 8 8 8 8 8 7 7 7 6 6 5 5 4 4 4 3 3
4 5 5 5 5 5 5 5 6 6 6 6 7 7 7 7 8 8 8 8 8 8 8 9 9 9 9 9 10 10 10 10 10 10 10 10 10 11 10 10 10 9 9 9 8 7 7 6 6 5 5 4
5 5 5 5 6 6 6 6 7 7 7 8 8 8 8 8 9 9 9 9 9 9 9 9 9 9 9 10 10 10 10 11 11 11 11 12 11 12 12 12 12 12 12 11 11 10 10 9 8 7 6 6
5 6 6 6 6 7 7 7 8 8 8 9 9 9 9 10 10 10 10 10 10 10 10 10 10 10 10 10 10 10 11 11 11 11 11 12 12 12 13 13 13 13 13 13 13 13 12 12 11 10 9 8
6 6 7 7 8 8 9 9 9 10 10 10 11 11 11 12 12 12 12 12 12 12 12 12 12 12 12 11 12 12 12 12 12 12 12 12 12 12 13 13 13 14 14 14 14 14 14 14 13 13 12 11
7 8 8 9 9 10 10 11 11 12 12 12 13 13 14 14 14 15 15 15 15 16 16 16 16 16 16 15 15 15 15 15 14 14 14 13 13 13 13 14 14 14 15 15 15 16 15 15 15 14 14 13
9 9 10 10 11 11 12 12 13 13 13 14 14 15 15 16 17 17 17 18 18 18 18 18 18 19 19 19 19 19 19 19 19 18 17 16 15 15 15 15 15 15 16 16 16 16 16 17 16 15 15 14
10 10 11 11 12 12 12 13 13 14 14 14 15 15 15 16 17 18 18 18 18 17 18 18 19 19 20 21 21 22 22 22 22 22 21 20 19 18 17 17 16 16 16 17 17 17 18 18 17 17 16 15
10 11 11 11 12 12 13 13 12 13 13 13 13 13 14 15 15 15 15 15 15 15 15 16 17 18 19 20 21 22 23 24 24 24 24 23 22 21 20 19 18 18 18 18 18 18 18 18 18 18 17 16
10 10 11 11 11 12 12 11 11 11 12 11 11 11 12 12 12 12 12 12 13 13 14 15 16 17 18 20 21 23 24 26 26 27 27 26 26 24 23 21 20 19 19 19 19 19 19 19 19 18 18 17
9 9 10 10 10 10 10 9 9 10 10 9 9 10 11 11 11 11 11 11 12 13 14 15 16 17 19 20 22 24 25 27 28 29 30 29 29 27 25 24 22 21 21 21 20 20 20 20 19 19 18 17
8 8 9 9 9 8 9 8 8 9 9 8 9 11 11 11 11 11 11 12 13 14 14 16 17 18 19 21 23 25 26 28 30 31 32 32 31 30 28 26 24 23 22 22 22 21 21 21 20 19 17 16
7 8 9 8 8 8 8 8 8 9 8 9 11 13 12 12 12 11 11 13 14 14 15 17 18 19 21 23 26 28 30 31 32 34 34 34 34 33 31 28 26 24 23 23 23 23 22 21 20 19 17 16
8 8 8 8 7 8 8 7 8 8 9 10 13 13 13 13 12 12 12 14 15 16 17 18 19 21 22 25 28 30 33 35 36 37 38 38 37 36 33 31 28 27 25 24 24 24 23 22 21 19 18 16
8 8 8 8 8 8 8 8 8 9 10 12 13 14 14 14 14 14 14 15 17 18 19 20 21 22 24 27 30 32 34 37 39 40 41 41 41 39 36 33 31 28 27 25 25 24 24 23 22 20 18 16
7 8 8 8 9 10 10 10 10 10 12 14 15 15 15 15 15 16 16 17 19 19 21 22 22 23 24 27 30 33 36 39 41 42 43 44 44 43 40 36 33 30 29 28 27 25 24 23 22 20 18 16
Wind_Speed
22 22 23 23 23 24 24 24 25 24 25 25 25 25 24 25 25 25 26 26 26 26 26 26 26 27 27 27 27 27 28 28 28 28 28 28 28 28 28 28 29 29 28 29 28 28 28 28 29 29 29 29
24 24 24 25 25 25 25 24 24 24 24 24 24 24 24 24 24 25 25 25 25 26 26 26 26 26 27 27 27 27 27 28 28 28 29 29 29 29 29 29 29 29 29 29 29 29 29 29 29 29 30 30
24 24 24 24 24 23 23 23 23 24 24 24 24 24 24 24 24 24 25 25 25 25 25 25 25 26 26 27 27 27 27 27 28 28 29 29 30 30 30 30 30 30 30 30 30 30 30 30 30 30 30 30
23 23 23 22 22 22 22 23 23 23 23 24 24 24 24 24 24 24 25 25 25 25 25 25 25 25 26 26 27 27 27 27 28 28 28 29 29 30 30 30 30 30 30 31 31 31 31 31 30 30 31 31
21 21 21 22 22 22 22 22 22 23 23 23 24 24 24 25 25 25 25 25 25 25 25 26 26 26 26 26 27 27 27 28 28 28 28 29 29 29 30 30 30 30 30 31 31 31 31 31 31 31 31 32
21 21 21 21 21 21 21 21 22 22 23 23 23 24 24 24 24 24 25 24 25 25 25 25 25 25 25 25 26 26 27 27 27 28 28 29 29 29 30 30 30 30 30 31 31 32 32 32 32 32 32 33
21 21 21 21 21 21 21 21 21 21 21 21 22 22 22 23 23 23 24 24 24 24 24 24 24 24 24 25 25 25 25 26 26 26 27 27 28 28 29 29 29 29 30 30 31 32 32 33 33 33 33 33
21 21 21 21 21 21 21 21 20 20 20 20 21 21 21 22 22 23 23 23 23 23 23 24 24 24 24 24 24 24 24 25 25 25 25 26 26 27 27 28 28 29 29 29 29 30 31 32 33 33 34 34
22 21 21 20 20 20 20 20 20 20 20 21 21 21 21 21 21 21 22 22 22 22 22 22 22 22 23 23 23 24 24 24 24 24 24 25 25 25 26 26 27 28 28 29 29 29 30 30 31 32 33 34
20 20 20 19 20 20 20 20 20 20 20 20 21 21 21 21 21 21 21 21 21 21 22 22 22 22 23 23 23 23 24 24 24 24 24 24 25 25 25 25 26 26 27 27 28 28 29 29 30 31 32 33
19 19 19 19 20 20 20 20 20 20 20 21 21 21 21 22 22 22 22 22 23 23 23 24 24 24 24 25 25 25 25 25 25 25 25 26 26 26 26 26 26 27 27 27 27 27 28 28 29 30 30 31
19 19 19 20 20 20 20 20 21 21 21 22 22 22 23 23 23 23 24 24 25 25 25 26 26 27 27 27 27 27 27 27 28 28 28 28 28 28 28 28 28 28 28 28 28 28 28 28 28 28 29 30
20 20 20 21 21 21 21 22 22 22 23 23 23 24 24 24 25 25 25 26 26 27 27 28 28 29 29 29 29 30 30 30 30 30 30 30 30 31 31 31 30 30 30 30 30 30 30 30 30 30 29 29
21 22 22 22 22 23 23 23 23 24 24 24 24 24 25 25 26 26 27 27 28 28 28 29 29 30 30 31 31 31 32 32 32 32 32 32 32 32 32 33 33 32 33 33 33 33 33 33 33 32 32 32
23 23 24 24 24 24 24 25 25 25 25 25 25 25 26 26 26 27 28 28 29 29 29 30 30 31 31 32 32 32 32 33 33 33 33 33 33 33 33 34 34 34 34 34 34 34 34 35 35 35 35 35
24 24 25 25 25 25 26 26 26 26 26 27 26 27 27 27 28 28 28 29 29 30 30 31 31 31 32 32 33 33 33 33 33 34 34 34 34 34 34 34 34 34 35 35 35 36 36 36 36 37 37 37
25 25 26 26 26 26 27 27 27 27 27 27 27 27 28 28 29 29 29 30 30 31 31 32 32 33 33 34 34 34 34 34 34 34 35 34 35 35 35 35 35 35 35 35 36 36 36 37 37 38 38 39
26 27 27 27 27 27 27 27 28 28 28 28 28 28 28 29 29 30 31 31 31 32 33 33 34 34 35 35 35 35 35 35 36 36 36 36 36 36 36 36 36 36 36 36 36 37 37 37 38 38 39 40
27 28 28 28 28 28 28 28 28 28 29 29 29 29 29 30 30 31 32 32 33 33 34 35 35 36 36 37 37 37 37 37 37 37 37 37 37 37 37 37 37 37 37 37 37 37 38 38 38 39 39 40
29 29 29 29 29 28 29 29 29 29 30 30 30 30 30 31 31 32 32 33 34 34 35 36 37 37 37 37 38 38 38 38 38 38 38 38 38 38 38 39 38 38 38 38 38 38 39 39 39 39 40 40
29 30 30 30 29 29 29 30 30 30 30 30 30 30 31 31 32 32 33 33 34 35 36 36 37 37 38 38 38 38 38 38 38 38 39 39 39 39 39 40 40 39 40 40 39 40 40 40 40 41 41 41
30 30 30 30 29 29 30 30 30 30 30 30 30 31 31 32 32 32 33 34 35 35 36 37 37 37 38 38 38 39 39 39 39 39 39 40 40 40 40 40 41 41 41 41 41 41 41 41 41 42 42 43
30 31 30 30 30 30 30 30 30 30 30 30 31 31 32 32 33 33 33 34 35 36 36 37 37 38 38 39 39 39 39 40 39 39 40 40 40 41 41 42 42 42 42 42 42 42 42 41 42 42 43 43
31 31 31 30 30 30 31 31 31 31 31 31 32 32 33 33 33 33 34 35 36 36 37 37 37 38 39 39 40 40 40 41 41 41 41 41 41 41 42 42 43 43 43 43 43 43 43 43 43 43 43 43
31 31 31 31 31 32 32 32 32 31 32 32 33 33 34 34 34 35 35 36 37 37 38 38 39 39 40 40 41 41 41 42 42 42 43 43 43 43 43 43 44 44 44 44 44 44 44 43 44 45 45 45
31 31 32 33 33 33 34 34 33 33 33 34 34 35 35 35 35 36 36 37 37 38 39 39 40 40 41 41 42 42 43 43 43 43 43 44 44 45 45 45 45 45 44 45 45 45 45 45 44 45 47 47
32 32 33 34 35 35 35 36 34 34 35 35 36 36 36 37 37 37 37 38 38 39 40 40 41 41 42 42 43 44 44 44 44 44 44 44 45 45 45 46 47 47 45 44 45 46 46 46 46 46 46 49
33 34 35 36 37 37 37 37 36 36 37 37 37 38 38 38 38 38 38 38 39 40 40 40 41 41 42 42 43 44 45 45 46 46 46 46 46 46 46 47 48 49 48 46 45 46 47 47 47 47 47 49
35 36 36 38 38 38 39 39 38 39 39 39 39 39 40 40 39 40 39 39 40 41 41 41 41 41 42 42 43 44 44 45 46 46 46 47 47 47 47 47 47 48 49 48 46 45 46 47 48 48 49 50
36 38 38 39 39 39 40 40 40 40 41 41 41 40 41 41 40 41 41 41 41 42 42 41 42 42 42 42 43 44 44 45 46 46 46 47 47 48 48 48 47 48 48 49 48 47 45 45 47 49 50 51
38 39 39 40 40 40 41 42 42 42 43 43 43 42 43 43 42 42 42 42 42 43 43 43 43 43 43 43 44 45 45 45 46 46 47 47 47 48 49 49 48 48 48 49 50 50 48 47 46 48 49 51
Wind_Direction
282 284 285 287 289 290 291 291 292 292 292 292 293 293 293 293 292 292 292 292 291 291 291 290 290 289 288 287 287 286 285 285 285 285 284 284 283 283 282 282 281 280 279 278 276 275 274 273 273 273 273 273
282 284 286 287 288 290 291 292 293 294 294 294 295 295 295 294 294 293 293 292 292 292 291 291 290 290 289 288 288 287 286 286 285 285 285 285 284 284 283 282 282 281 280 279 279 277 276 275 273 272 272 271
280 283 285 287 288 289 291 293 293 294 295 295 295 295 295 295 295 294 294 294 293 293 292 292 291 291 290 290 289 289 288 287 286 286 286 286 286 286 285 284 283 282 281 280 279 278 278 277 275 274 273 271
280 282 284 286 288 290 291 292 293 294 294 294 295 295 295 295 295 295 295 295 295 295 294 294 292 292 291 290 290 290 289 288 288 287 287 286 286 286 286 286 285 283 283 282 281 280 278 277 276 275 274 273
280 282 284 285 286 288 289 290 291 293 293 294 294 295 295 296 296 296 296 296 295 295 295 294 293 292 291 290 290 289 289 288 288 287 287 286 286 286 285 285 284 284 283 282 281 281 280 278 276 275 274 273
281 283 284 285 286 286 287 289 290 291 292 293 294 295 296 296 297 297 298 297 297 296 296 295 294 293 292 291 290 289 289 288 288 288 287 287 286 286 285 285 284 283 283 282 281 280 280 279 278 276 275 274
282 283 285 286 287 289 290 291 291 292 292 293 295 295 296 296 297 297 297 296 296 296 296 296 295 294 293 292 292 291 290 290 289 288 287 287 287 286 286 285 284 283 282 281 281 279 279 278 278 277 276 275
283 284 286 287 289 290 291 292 293 293 294 294 294 294 294 294 294 294 294 294 294 294 294 294 294 294 294 293 292 291 291 290 289 289 288 287 286 286 285 284 284 283 282 281 280 279 278 277 277 277 276 275
283 284 285 286 287 289 290 291 291 292 292 292 292 292 292 291 291 291 291 292 292 292 292 292 292 292 292 292 292 292 292 292 292 291 291 290 289 288 287 286 285 284 283 282 281 280 279 278 277 276 275 275
279 281 282 284 285 286 287 288 289 289 289 289 289 289 289 289 289 289 290 290 290 290 291 291 291 291 291 291 291 292 292 292 293 292 292 292 291 291 290 290 289 287 286 285 284 283 281 280 279 277 276 275
277 279 280 282 283 284 285 286 286 286 286 286 286 286 286 286 287 288 288 289 289 290 290 290 291 291 291 291 291 291 291 291 291 291 291 290 290 290 289 289 289 289 288 287 286 285 283 282 281 279 278 276
276 277 279 280 280 281 281 281 282 282 282 282 283 283 284 285 286 287 288 289 289 290 291 291 291 292 292 292 292 292 291 291 291 290 290 289 289 288 288 287 287 287 287 286 286 286 285 284 283 281 280 279
276 277 277 278 278 278 279 279 279 279 279 280 282 283 285 286 288 289 290 291 291 292 292 292 293 292 292 292 292 292 291 291 291 291 290 290 289 289 288 288 287 287 286 286 285 285 285 284 283 282 281 280
277 277 278 278 278 278 278 278 278 279 280 281 283 285 287 289 291 292 293 293 294 294 294 294 295 294 294 294 294 294 293 293 292 291 290 290 289 288 288 287 287 287 286 286 285 285 284 284 284 283 282 281
276 277 278 278 278 279 279 280 281 282 284 285 287 289 290 292 293 295 295 295 296 296 296 296 296 296 296 296 296 295 294 294 293 291 291 290 289 288 287 287 286 285 285 285 284 284 283 283 282 282 282 282
275 276 277 277 278 279 280 281 283 284 286 287 289 291 292 294 294 295 296 296 297 297 297 297 297 297 297 296 295 294 293 293 292 291 291 290 289 288 288 287 286 285 285 284 283 282 282 281 281 280 280 280
276 277 277 278 279 280 280 281 283 284 286 287 288 290 291 293 293 294 295 295 296 296 296 296 296 295 295 294 293 293 293 292 292 291 291 290 290 289 289 288 288 287 286 285 284 283 282 281 280 280 279 279
277 278 278 279 279 280 281 282 283 285 286 287 289 290 291 292 293 293 294 294 294 294 294 294 293 293 292 292 292 292 292 291 291 291 291 291 290 290 290 289 289 289 288 288 287 286 285 283 282 281 280 279
277 278 278 279 280 281 282 283 285 286 287 288 289 290 291 292 292 292 293 293 293 293 292 292 291 290 290 290 290 290 290 290 290 290 290 290 290 290 290 290 290 290 289 289 289 288 288 287 285 284 282 281
277 278 279 280 282 283 284 285 285 287 287 288 289 290 290 290 291 291 291 292 292 292 291 290 290 289 289 289 289 289 289 289 289 290 290 290 290 290 290 290 290 290 290 290 290 290 289 289 288 286 285 283
278 279 280 281 282 283 283 284 285 286 286 287 288 289 290 290 290 291 291 292 291 291 291 290 290 290 290 290 290 290 289 289 289 289 289 289 289 289 289 289 289 289 289 289 290 290 290 290 289 289 287 286
279 280 281 281 282 282 283 284 285 285 286 288 288 289 290 290 290 291 291 291 291 291 291 291 291 291 291 291 291 291 291 291 291 290 290 290 289 289 289 288 289 289 289 289 289 289 289 290 290 289 289 288
280 281 281 282 282 283 284 284 285 286 287 288 288 289 289 289 290 291 291 291 291 291 291 292 292 293 293 293 293 293 293 293 293 292 291 291 290 290 289 289 289 289 288 289 288 289 289 289 289 289 288 288
281 281 282 282 283 284 284 284 286 287 287 288 288 289 289 289 290 290 291 291 291 292 292 293 293 294 294 294 295 295 295 295 295 295 294 293 292 291 290 290 289 289 288 288 288 288 289 289 289 288 287 287
281 282 283 283 284 284 284 285 286 287 287 287 288 288 287 288 290 290 291 291 292 293 293 294 295 295 296 296 296 296 296 296 296 296 296 295 294 293 292 291 290 290 289 289 289 289 289 289 289 289 288 286
283 284 284 284 284 284 284 285 286 286 286 286 286 286 286 287 288 289 290 291 292 293 294 295 296 296 297 297 297 297 297 297 296 296 296 295 295 294 293 292 290 290 290 290 290 290 290 290 290 290 290 288
285 284 283 283 284 285 284 284 285 285 284 285 284 285 285 285 286 287 288 290 291 292 293 294 295 296 296 296 296 297 296 296 296 295 294 294 293 293 292 291 291 289 289 289 290 290 291 291 292 292 291 290
285 284 283 283 284 285 285 285 285 284 283 283 283 283 284 284 285 286 287 289 290 290 291 292 293 294 295 295 295 295 295 295 295 295 294 293 293 292 291 291 291 290 289 289 290 291 291 292 293 292 292 292
283 283 282 283 284 285 285 286 285 284 283 283 282 282 283 283 285 286 287 287 288 288 289 290 291 292 293 293 293 293 293 293 293 293 293 293 292 292 291 291 290 290 290 289 290 291 292 293 293 293 293 293
281 282 282 283 285 285 285 285 285 284 284 283 283 283 283 284 285 286 286 286 287 287 288 289 290 291 291 292 291 291 292 292 292 291 292 292 292 291 290 290 290 290 290 290 290 290 291 292 293 293 294 293
282 282 284 285 286 285 285 286 286 287 286 285 285 285 285 285 286 286 287 287 287 287 288 289 289 290 290 290 290 290 291 291 291 291 291 291 291 291 291 291 290 290 291 291 291 291 291 291 291 292 293 293